{"data":{"norad_id":62384,"epoch":"2026-05-25T04:33:55.237824Z","epoch_age_seconds":61674,"freshness":"FRESH","line1":"1 62384U 24247H   26145.19022266  .00002360  00000+0  14658-3 0  9995","line2":"2 62384  44.9986 120.1384 0001287 287.9688  72.1049 15.12778124 78691","mean_motion":15.12778124,"eccentricity":0.0001287,"inclination_deg":44.9986,"raan_deg":120.1384,"arg_perigee_deg":287.9688,"mean_anomaly_deg":72.1049,"bstar":0.00014658,"rev_number":7869,"period_min":95.189107850954,"perigee_km":526.84345480328,"apogee_km":528.6210255457,"semimajor_km":6905.8692401745,"source":"CELESTRAK","updated_at":"2026-05-25T13:38:02.945484Z"}}